DW2057 Weather Reports


time (UTC)temp
C
wind
direction
speed
KPH
gust
KPH
rain 1hr
cm
rain 24hr
cm
rain mn
cm
humidity
%
barometer
mb
20260502170505 11 64 0.0 0.0 0.00 0.00 0.00 55 1025.0
20260502170231 11 64 0.0 1.6 0.00 0.00 0.00 54 1018.1
20260502164219 11 64 3.2 3.2 0.00 0.00 0.00 53 1018.3
20260502164004 11 64 3.2 4.8 0.00 0.00 0.00 53 1025.4
20260502163714 11 64 1.6 1.6 0.00 0.00 0.00 53 1018.4
20260502163211 10 64 1.6 1.6 0.00 0.00 0.00 55 1018.4
20260502163005 10 64 0.0 3.2 0.00 0.00 0.00 56 1025.2
20260502162708 10 64 1.6 1.6 0.00 0.00 0.00 55 1018.5
20260502162504 10 64 0.0 3.2 0.00 0.00 0.00 55 1025.1
20260502162204 10 64 1.6 1.6 0.00 0.00 0.00 54 1018.3
20260502162005 10 64 1.6 3.2 0.00 0.00 0.00 55 1025.2
20260502161702 10 64 1.6 1.6 0.00 0.00 0.00 56 1018.3
20260502161158 10 64 0.0 1.6 0.00 0.00 0.00 56 1018.5
20260502161005 10 64 0.0 0.0 0.00 0.00 0.00 56 1025.2
20260502160657 10 64 0.0 1.6 0.00 0.00 0.00 55 1018.4
20260502160505 10 64 0.0 0.0 0.00 0.00 0.00 56 1025.2
20260502160156 10 64 0.0 1.6 0.00 0.00 0.00 56 1018.5
20260502152109 13 349 1.6 1.6 0.00 0.00 0.00 47 1018.3
20260502152005 13 349 0.0 3.2 0.00 0.00 0.00 45 1025.1
20260502151606 13 8 1.6 3.2 0.00 0.00 0.00 44 1018.4
20260502151104 13 305 1.6 3.2 0.00 0.00 0.00 39 1018.4
20260502151005 13 325 1.6 4.8 0.00 0.00 0.00 40 1025.2
20260502150601 13 309 3.2 3.2 0.00 0.00 0.00 38 1018.7
20260502150505 13 303 4.8 4.8 0.00 0.00 0.00 39 1025.5
20260502130511 10 10 1.6 3.2 0.00 0.00 0.05 49 1025.4
20260502130446 10 10 1.6 1.6 0.00 0.05 0.05 49 1018.6
20260502123428 10 10 1.6 1.6 0.00 0.05 0.05 45 1018.4
20260502123011 11 10 3.2 3.2 0.00 0.00 0.05 44 1025.3
20260502122926 11 10 1.6 1.6 0.00 0.05 0.05 45 1018.5
20260502122507 10 10 3.2 4.8 0.00 0.00 0.05 44 1025.3
20260502122422 10 10 3.2 3.2 0.00 0.05 0.05 45 1018.3
20260502122009 10 11 3.2 4.8 0.00 0.00 0.05 46 1025.3
20260502121920 10 11 0.0 0.0 0.00 0.05 0.05 48 1018.4
20260502121517 11 12 3.2 4.8 0.00 0.00 0.05 44 1025.2
20260502121417 11 12 3.2 3.2 0.00 0.05 0.05 44 1018.5
20260502120915 11 12 3.2 3.2 0.00 0.05 0.05 45 1018.4
20260502120410 11 18 3.2 3.2 0.00 0.05 0.05 46 1018.1
20260502115908 11 33 1.6 1.6 0.00 0.05 0.05 48 1018.1
20260502115507 11 33 3.2 4.8 0.00 0.00 0.05 47 1024.8
20260502115405 11 33 1.6 3.2 0.00 0.05 0.05 47 1018.0
20260502115005 11 33 1.6 3.2 0.00 0.00 0.05 44 1024.8
20260502114901 11 33 0.0 1.6 0.00 0.05 0.05 45 1018.0
20260502114507 11 33 1.6 3.2 0.00 0.00 0.05 47 1024.6
20260502114358 11 33 1.6 3.2 0.00 0.05 0.05 47 1017.8
20260502114007 11 33 3.2 4.8 0.00 0.00 0.05 45 1024.6
20260502113855 11 33 3.2 3.2 0.00 0.05 0.05 45 1017.7
20260502113352 11 34 0.0 1.6 0.00 0.05 0.05 40 1017.8
20260502113006 11 33 3.2 4.8 0.00 0.00 0.05 44 1024.7
20260502112851 11 33 1.6 3.2 0.00 0.05 0.05 42 1017.6
20260502112506 11 34 3.2 4.8 0.00 0.00 0.05 46 1024.4
20260502112348 11 33 1.6 3.2 0.00 0.05 0.05 48 1017.6
20260502112005 11 34 3.2 3.2 0.00 0.00 0.05 42 1024.6
20260502111845 11 34 1.6 1.6 0.00 0.05 0.05 47 1017.5
20260502111505 12 33 0.0 3.2 0.00 0.00 0.05 41 1024.3
20260502111342 12 33 0.0 1.6 0.00 0.05 0.05 41 1017.4
20260502111006 12 33 1.6 3.2 0.00 0.00 0.05 40 1024.2
20260502110840 12 33 0.0 1.6 0.00 0.05 0.05 37 1017.2
20260502110506 12 33 0.0 3.2 0.00 0.00 0.05 38 1024.1
20260502110338 12 33 1.6 1.6 0.00 0.05 0.05 39 1016.9
20260502110006 12 33 1.6 4.8 0.00 0.00 0.05 38 1023.8
20260502105835 12 33 3.2 3.2 0.00 0.05 0.05 39 1016.9
20260502105332 12 33 1.6 3.2 0.00 0.05 0.05 39 1016.9
20260502105005 12 30 1.6 3.2 0.00 0.00 0.05 39 1023.8
20260502104830 12 30 1.6 1.6 0.00 0.05 0.05 38 1016.9
20260502104327 12 31 1.6 1.6 0.00 0.05 0.05 37 1016.5
20260502103824 12 30 0.0 1.6 0.00 0.05 0.05 36 1016.7
20260502103321 12 30 0.0 3.2 0.00 0.05 0.05 37 1016.8
20260502103005 13 30 1.6 4.8 0.00 0.00 0.05 37 1023.5
20260502102819 13 30 0.0 1.6 0.00 0.05 0.05 36 1016.5
20260502102505 13 30 1.6 3.2 0.00 0.00 0.05 37 1023.5
20260502102315 13 30 1.6 1.6 0.00 0.05 0.05 36 1016.3
20260502102005 13 30 3.2 3.2 0.00 0.00 0.05 36 1023.3
20260502101813 12 30 0.0 0.0 0.00 0.05 0.05 37 1016.4
20260502101311 13 30 1.6 1.6 0.00 0.05 0.05 37 1016.3
20260502101005 13 25 1.6 3.2 0.00 0.00 0.05 39 1023.1
20260502100809 13 301 0.0 0.0 0.00 0.05 0.05 38 1016.1
20260502100308 13 301 0.0 0.0 0.00 0.05 0.05 34 1016.3
20260502091241 16 268 0.0 0.0 0.00 0.05 0.05 27 1015.4
20260502091005 17 268 0.0 0.0 0.00 0.00 0.05 25 1022.6
20260502090738 17 268 0.0 1.6 0.00 0.05 0.05 21 1015.6
20260502090504 17 271 3.2 6.4 0.00 0.00 0.05 19 1022.5
20260502090235 17 245 0.0 1.6 0.00 0.05 0.05 21 1015.4
20260502071505 18 343 1.6 6.4 0.00 0.00 0.05 14 1021.6
20260502071136 18 295 3.2 8.0 0.00 0.05 0.05 13 1014.4
20260502070634 19 300 8.0 9.7 0.00 0.05 0.05 13 1014.4
20260502070131 19 271 4.8 4.8 0.00 0.05 0.05 13 1014.3
20260502070004 19 316 3.2 6.4 0.00 0.00 0.05 13 1021.6
20260502065630 19 282 0.0 4.8 0.00 0.05 0.05 14 1014.3
20260502065505 19 273 4.8 6.4 0.00 0.00 0.05 13 1021.5
20260502065127 19 142 1.6 3.2 0.00 0.05 0.05 14 1014.3
20260502065005 19 320 3.2 6.4 0.00 0.00 0.05 13 1021.4
20260502064626 19 175 1.6 3.2 0.00 0.05 0.05 14 1014.2
20260502064505 19 171 1.6 4.8 0.00 0.00 0.05 14 1021.4
20260502064122 19 30 1.6 4.8 0.00 0.05 0.05 14 1014.2
20260502063620 19 281 4.8 8.0 0.00 0.05 0.05 13 1014.1
20260502063117 19 241 1.6 9.7 0.00 0.05 0.05 13 1014.2
20260502063004 19 271 4.8 9.7 0.00 0.00 0.05 13 1021.2
20260502062614 19 272 1.6 11.3 0.00 0.05 0.05 13 1014.2
20260502062506 19 302 8.0 11.3 0.00 0.00 0.05 12 1021.3
20260502062112 19 222 3.2 9.7 0.00 0.05 0.05 12 1014.1
20260502062004 19 27 6.4 9.7 0.00 0.00 0.05 11 1021.4
20260502061610 19 225 8.0 12.9 0.00 0.05 0.05 14 1014.1
20260502061108 20 0 0.0 12.9 0.00 0.05 0.05 15 1013.8
20260502061005 20 260 6.4 14.5 0.00 0.00 0.05 13 1021.2
20260502060607 19 359 8.0 9.7 0.00 0.05 0.05 15 1013.6
20260502060105 19 205 6.4 8.0 0.00 0.05 0.05 15 1013.6
20260502060005 19 264 3.2 6.4 0.00 0.00 0.05 14 1021.1
20260502055602 20 211 4.8 11.3 0.00 0.05 0.05 13 1013.6
20260502055505 20 222 3.2 6.4 0.00 0.00 0.05 13 1020.9
20260502055100 20 285 4.8 12.9 0.00 0.05 0.05 11 1013.6
20260502055004 20 272 4.8 6.4 0.00 0.00 0.05 14 1021.0
20260502054559 20 260 1.6 9.7 0.00 0.05 0.05 14 1013.4
20260502054055 19 281 3.2 8.0 0.00 0.05 0.05 14 1013.5
20260502054005 19 349 4.8 11.3 0.00 0.00 0.05 12 1020.6
20260502053553 20 339 4.8 4.8 0.00 0.05 0.05 13 1013.2
20260502053050 20 289 9.7 11.3 0.00 0.05 0.05 11 1013.5
20260502053005 20 289 9.7 11.3 0.00 0.00 0.05 11 1020.8
20260502052549 20 3 8.0 9.7 0.00 0.05 0.05 12 1013.1
20260502052504 20 3 9.7 9.7 0.00 0.00 0.05 12 1020.4
20260502052046 20 277 8.0 8.0 0.00 0.05 0.05 13 1013.3
20260502052005 20 277 8.0 8.0 0.00 0.00 0.05 13 1020.6
20260502051544 20 252 1.6 4.8 0.00 0.05 0.05 13 1013.3
20260502051042 20 281 1.6 11.3 0.00 0.05 0.05 13 1013.0
20260502051005 20 281 1.6 11.3 0.00 0.00 0.05 13 1020.3
20260502050537 20 266 4.8 11.3 0.00 0.05 0.05 13 1012.9
20260502050035 20 334 1.6 8.0 0.00 0.05 0.05 14 1013.0
20260502045531 20 204 3.2 4.8 0.00 0.05 0.05 15 1013.1
20260502045504 20 204 3.2 6.4 0.00 0.00 0.05 15 1020.4
20260502045029 20 273 6.4 12.9 0.00 0.05 0.05 13 1013.3
20260502045005 20 273 6.4 14.5 0.00 0.00 0.05 13 1020.6
20260502044525 20 329 3.2 9.7 0.00 0.05 0.05 15 1013.3
20260502044505 20 329 3.2 9.7 0.00 0.00 0.05 15 1020.6
20260502044022 20 268 4.8 9.7 0.00 0.05 0.05 15 1013.4
20260502043519 20 234 4.8 8.0 0.00 0.05 0.05 15 1013.3
20260502043505 20 234 6.4 8.0 0.00 0.00 0.05 15 1020.6
20260502043015 20 287 3.2 11.3 0.00 0.05 0.05 13 1013.3
20260502042510 21 205 3.2 8.0 0.00 0.05 0.05 14 1013.2
20260502042505 21 205 4.8 8.0 0.00 0.00 0.05 14 1020.5
20260502042008 20 75 3.2 11.3 0.00 0.05 0.05 14 1013.1
20260502042004 20 75 3.2 11.3 0.00 0.00 0.05 14 1020.4
20260502041506 20 342 9.7 11.3 0.00 0.05 0.05 15 1013.2
20260502041504 20 342 9.7 11.3 0.00 0.00 0.05 15 1020.5
20260502041003 20 291 4.8 8.0 0.00 0.05 0.05 14 1013.3
20260502040459 19 187 1.6 8.0 0.00 0.05 0.05 15 1013.1
20260502040005 20 238 6.4 8.0 0.00 0.00 0.05 16 1020.1
20260502035956 20 238 4.8 8.0 0.00 0.05 0.05 16 1012.7
20260502035504 20 253 8.0 16.1 0.00 0.00 0.05 15 1020.3
20260502035451 20 200 4.8 9.7 0.00 0.05 0.05 15 1013.0
20260502035005 20 250 8.0 11.3 0.00 0.00 0.05 16 1020.1
20260502034950 19 309 4.8 17.7 0.00 0.05 0.05 16 1012.9
20260502034448 20 246 4.8 8.0 0.00 0.05 0.05 17 1012.5
20260502034006 20 219 4.8 16.1 0.00 0.00 0.05 17 1020.1
20260502033946 21 266 12.9 14.5 0.00 0.05 0.05 15 1012.6
20260502033443 20 1 3.2 8.0 0.00 0.05 0.05 15 1012.5
20260502033004 20 299 4.8 11.3 0.00 0.00 0.05 17 1019.8
20260502032940 20 278 4.8 16.1 0.00 0.05 0.05 17 1012.5
20260502032436 20 182 4.8 4.8 0.00 0.05 0.05 18 1012.5
20260502032004 21 295 3.2 9.7 0.00 0.00 0.05 15 1020.2
20260502031933 20 315 3.2 8.0 0.00 0.05 0.05 18 1012.4
20260502031505 20 291 8.0 14.5 0.00 0.00 0.05 17 1020.0
20260502031432 20 206 8.0 12.9 0.00 0.05 0.05 17 1012.6
20260502030930 20 270 4.8 9.7 0.00 0.05 0.05 17 1012.6
20260502030428 20 301 3.2 8.0 0.00 0.05 0.05 17 1012.7
20260502030005 20 319 3.2 9.7 0.00 0.00 0.05 17 1020.0
20260502025925 20 270 1.6 11.3 0.00 0.05 0.05 18 1012.7
20260502025422 20 246 3.2 11.3 0.00 0.05 0.05 18 1012.4
20260502025005 20 327 6.4 11.3 0.00 0.00 0.05 17 1020.0
20260502024920 20 272 8.0 11.3 0.00 0.05 0.05 19 1012.4
20260502024505 20 236 8.0 9.7 0.00 0.00 0.05 18 1019.8
20260502024418 20 265 4.8 8.0 0.00 0.05 0.05 18 1012.3
20260502023916 20 225 4.8 9.7 0.00 0.05 0.05 17 1012.2
20260502023505 20 288 6.4 9.7 0.00 0.00 0.05 19 1019.5
20260502023413 20 271 8.0 9.7 0.00 0.05 0.05 20 1012.0
20260502023004 20 99 3.2 11.3 0.00 0.00 0.05 19 1019.4
20260502022910 20 229 8.0 11.3 0.00 0.05 0.05 20 1012.3
20260502022505 20 251 3.2 6.4 0.00 0.00 0.05 20 1019.4
20260502022407 20 281 4.8 8.0 0.00 0.05 0.05 21 1012.2
20260502022005 20 33 6.4 8.0 0.00 0.00 0.05 20 1019.3
20260502021903 20 33 6.4 8.0 0.00 0.05 0.05 20 1011.9
20260502021505 19 352 1.6 11.3 0.00 0.00 0.05 21 1019.6
20260502021401 19 218 6.4 11.3 0.00 0.05 0.05 21 1012.0
20260502021005 19 282 6.4 19.3 0.00 0.00 0.05 21 1019.6
20260502020858 18 267 1.6 4.8 0.00 0.05 0.05 22 1012.1
20260502020356 20 286 6.4 12.9 0.00 0.05 0.05 20 1012.2
20260502020005 20 4 9.7 14.5 0.00 0.00 0.05 21 1019.3
20260502015852 18 270 1.6 8.0 0.00 0.05 0.05 24 1012.1
20260502015350 19 294 8.0 12.9 0.00 0.05 0.05 20 1011.8
20260502015005 18 280 3.2 17.7 0.00 0.00 0.05 23 1019.4
20260502014847 18 164 4.8 11.3 0.00 0.05 0.05 24 1012.0
20260502014344 19 292 4.8 11.3 0.00 0.05 0.05 23 1011.6
20260502013840 19 278 4.8 11.3 0.00 0.05 0.05 26 1012.1
20260502013505 18 215 3.2 8.0 0.00 0.00 0.05 27 1019.2
20260502013335 18 93 6.4 8.0 0.00 0.05 0.05 27 1012.1
20260502012832 18 264 1.6 8.0 0.00 0.05 0.05 29 1011.4
20260502012330 18 169 9.7 16.1 0.00 0.05 0.05 30 1011.4
20260502012004 18 200 9.7 14.5 0.00 0.00 0.05 28 1019.2
20260502011827 17 305 3.2 4.8 0.00 0.05 0.05 30 1011.4
20260502011504 18 180 9.7 17.7 0.00 0.00 0.05 28 1018.8
20260502011323 18 260 4.8 8.0 0.00 0.05 0.05 27 1011.8
20260502011005 18 186 4.8 17.7 0.00 0.00 0.05 25 1018.8
20260502010821 17 322 4.8 4.8 0.00 0.05 0.05 30 1011.4
20260502010317 17 270 1.6 8.0 0.00 0.05 0.05 29 1011.4
20260502010004 17 214 3.2 8.0 0.00 0.00 0.05 32 1018.9
20260502005814 17 289 3.2 9.7 0.00 0.05 0.05 28 1011.5
20260502005505 18 304 4.8 11.3 0.00 0.00 0.05 28 1018.7
20260502005312 18 265 4.8 8.0 0.00 0.05 0.05 29 1011.4
20260502004809 17 6 6.4 8.0 0.00 0.05 0.05 29 1011.4
20260502004505 17 207 3.2 4.8 0.00 0.00 0.05 34 1019.1
20260502004305 17 270 1.6 9.7 0.00 0.05 0.05 31 1011.3
20260502004005 17 225 4.8 8.0 0.00 0.00 0.05 30 1019.0
20260502003803 17 190 6.4 9.7 0.00 0.05 0.05 31 1011.2
20260502003505 17 266 4.8 9.7 0.00 0.00 0.05 29 1018.8
20260502003259 17 338 6.4 8.0 0.00 0.05 0.05 32 1011.1
20260502003004 17 279 3.2 11.3 0.00 0.00 0.05 31 1018.7
20260502002755 17 279 4.8 9.7 0.00 0.05 0.05 31 1011.1
20260502002505 17 27 1.6 8.0 0.00 0.00 0.05 35 1018.4
20260502002253 17 289 4.8 4.8 0.00 0.05 0.05 31 1010.7
20260502002006 17 230 4.8 8.0 0.00 0.00 0.05 31 1018.4
20260502001750 16 192 0.0 1.6 0.00 0.05 0.05 34 1010.8
20260502001248 16 239 3.2 9.7 0.00 0.05 0.05 35 1010.7
20260502000746 16 273 3.2 8.0 0.00 0.05 0.05 34 1010.8
20260502000505 16 187 3.2 8.0 0.00 0.00 0.05 36 1018.3
20260502000244 16 202 1.6 8.0 0.00 0.05 0.05 38 1010.5
20260502000005 16 260 8.0 11.3 0.00 0.00 0.05 37 1018.2
20260501235738 16 299 3.2 4.8 0.00 0.05 0.05 37 1010.7
20260501235505 16 296 8.0 11.3 0.00 0.05 0.05 35 1018.0
20260501235235 16 325 1.6 8.0 0.00 0.05 0.05 36 1010.2
20260501235005 16 257 3.2 8.0 0.00 0.05 0.05 41 1017.8
20260501234731 15 34 0.0 4.8 0.00 0.05 0.05 41 1010.2
20260501234505 15 92 1.6 6.4 0.00 0.05 0.05 40 1018.0
20260501234228 15 243 0.0 4.8 0.00 0.05 0.05 43 1010.1
20260501233726 15 331 4.8 11.3 0.00 0.05 0.05 43 1010.0
20260501233505 15 269 3.2 9.7 0.00 0.00 0.05 41 1017.5
20260501233224 15 269 4.8 8.0 0.00 0.05 0.05 41 1010.1
20260501233004 14 206 3.2 9.7 0.00 0.00 0.05 43 1017.8
20260501232718 14 50 1.6 3.2 0.00 0.05 0.05 47 1010.1
20260501232505 14 144 1.6 11.3 0.00 0.00 0.05 46 1017.5
20260501232216 15 145 4.8 9.7 0.00 0.05 0.05 43 1010.1
20260501232004 15 210 6.4 8.0 0.00 0.00 0.05 45 1017.4
20260501231714 15 27 3.2 4.8 0.00 0.05 0.05 45 1009.8
20260501231505 14 185 4.8 6.4 0.00 0.00 0.05 46 1017.3
20260501231212 13 183 3.2 4.8 0.00 0.05 0.05 47 1009.9
20260501231005 13 167 8.0 9.7 0.00 0.00 0.05 46 1017.7
20260501230710 13 185 1.6 3.2 0.00 0.05 0.05 46 1010.0
20260501230208 13 248 1.6 8.0 0.00 0.05 0.05 51 1009.7
20260501230005 13 21 4.8 8.0 0.00 0.00 0.05 50 1017.3
20260501225705 12 183 1.6 8.0 0.00 0.05 0.05 49 1009.4
20260501225202 12 358 3.2 3.2 0.00 0.05 0.05 53 1009.8
20260501225005 12 24 1.6 6.4 0.00 0.00 0.05 54 1017.5
20260501224658 12 15 0.0 4.8 0.00 0.05 0.05 56 1009.4
20260501224156 11 82 1.6 1.6 0.00 0.05 0.05 58 1009.3
20260501224006 11 38 3.2 4.8 0.00 0.00 0.05 58 1017.1
20260501223652 11 307 3.2 3.2 0.00 0.05 0.05 58 1009.4
20260501223149 11 270 0.0 3.2 0.00 0.05 0.05 62 1009.2
20260501222645 10 270 1.6 9.7 0.00 0.05 0.05 61 1009.2
20260501222505 10 310 3.2 6.4 0.00 0.00 0.05 60 1016.9
20260501222142 10 41 1.6 4.8 0.00 0.05 0.05 62 1009.2
20260501222005 10 352 1.6 6.4 0.00 0.00 0.05 61 1017.0
20260501221638 10 345 3.2 4.8 0.00 0.05 0.05 59 1009.3
20260501221137 10 356 3.2 3.2 0.00 0.05 0.05 62 1008.9
20260501221005 10 34 1.6 6.4 0.00 0.00 0.05 62 1016.8
20260501220634 10 20 3.2 3.2 0.00 0.05 0.05 63 1008.8
20260501220504 10 309 1.6 4.8 0.00 0.00 0.05 62 1017.0
20260501220130 10 0 3.2 4.8 0.00 0.05 0.05 63 1008.8
20260501220005 10 273 3.2 6.4 0.00 0.00 0.05 63 1016.5
20260501215627 10 286 1.6 3.2 0.00 0.05 0.05 64 1008.6
20260501215504 10 3 3.2 4.8 0.00 0.00 0.05 62 1016.2
20260501215122 10 230 6.4 9.7 0.00 0.05 0.05 62 1008.8
20260501215005 10 322 4.8 9.7 0.00 0.00 0.05 63 1016.0
20260501214618 10 254 4.8 4.8 0.00 0.05 0.05 58 1008.3
20260501214113 10 334 3.2 8.0 0.00 0.05 0.05 57 1008.3
20260501213611 11 248 4.8 4.8 0.00 0.05 0.05 52 1008.0
20260501213504 11 223 3.2 6.4 0.00 0.00 0.05 52 1015.5
20260501213107 11 210 1.6 4.8 0.00 0.05 0.05 49 1008.0
20260501213005 11 245 3.2 8.0 0.00 0.00 0.05 51 1015.6
20260501212603 10 216 6.4 8.0 0.00 0.05 0.05 45 1007.8
20260501212504 10 359 3.2 6.4 0.00 0.00 0.05 47 1015.6
20260501212100 9 277 4.8 8.0 0.00 0.05 0.05 58 1007.8
20260501212004 9 187 4.8 6.4 0.00 0.00 0.05 59 1015.4
20260501211556 8 262 1.6 3.2 0.00 0.05 0.05 64 1007.8
20260501211055 8 33 1.6 4.8 0.00 0.05 0.05 65 1007.2
20260501211005 8 86 1.6 6.4 0.00 0.00 0.05 68 1015.4
20260501210550 7 190 4.8 9.7 0.00 0.05 0.05 68 1007.3
20260501210048 7 42 1.6 3.2 0.00 0.05 0.05 73 1007.1
20260501210004 7 60 3.2 4.8 0.00 0.00 0.05 73 1015.1
20260501205544 7 125 3.2 3.2 0.00 0.05 0.05 73 1007.1
20260501205505 7 43 3.2 4.8 0.00 0.00 0.05 72 1015.0
20260501205042 7 107 1.6 3.2 0.00 0.05 0.05 72 1007.0
20260501205004 7 127 3.2 6.4 0.00 0.00 0.05 72 1014.9
20260501204538 7 64 1.6 3.2 0.00 0.05 0.05 72 1007.1
20260501204034 7 141 0.0 4.8 0.00 0.05 0.05 72 1007.3
20260501204005 7 138 3.2 8.0 0.00 0.00 0.05 72 1014.7
20260501203531 7 46 1.6 4.8 0.00 0.05 0.05 73 1007.1
20260501203504 7 184 4.8 6.4 0.00 0.00 0.05 73 1014.9
20260501203029 7 206 3.2 4.8 0.00 0.05 0.05 74 1006.9
20260501203004 7 175 3.2 6.4 0.00 0.00 0.05 74 1014.8
20260501202525 7 210 0.0 8.0 0.00 0.05 0.05 75 1006.8
20260501202505 7 175 8.0 8.0 0.00 0.00 0.05 75 1014.4
20260501202022 7 185 0.0 4.8 0.00 0.05 0.05 74 1006.6
20260501202005 7 88 4.8 8.0 0.00 0.00 0.05 74 1014.5
20260501201519 7 202 4.8 8.0 0.00 0.05 0.05 73 1006.5
20260501201504 7 146 8.0 8.0 0.00 0.00 0.05 73 1014.3
20260501201015 7 208 8.0 17.7 0.00 0.05 0.05 73 1006.5
20260501200513 7 312 0.0 8.0 0.00 0.05 0.05 76 1006.6
20260501200010 7 157 8.0 9.7 0.00 0.05 0.05 77 1006.5
20260501200005 7 157 8.0 9.7 0.00 0.00 0.05 77 1014.4
20260501195507 7 319 3.2 3.2 0.00 0.05 0.05 77 1006.5
20260501195505 7 319 3.2 4.8 0.00 0.00 0.05 77 1014.4
20260501195004 7 84 1.6 4.8 0.00 0.00 0.05 77 1014.6
20260501194505 7 183 4.8 6.4 0.00 0.00 0.05 77 1014.3
20260501194458 7 183 3.2 4.8 0.00 0.05 0.05 77 1006.4
20260501193954 7 76 0.0 3.2 0.00 0.05 0.05 77 1006.0
20260501193507 7 277 1.6 3.2 0.00 0.00 0.05 78 1013.9
20260501193452 7 277 0.0 1.6 0.00 0.05 0.05 78 1005.9
20260501193004 7 179 4.8 8.0 0.00 0.00 0.05 78 1013.7
20260501192950 7 179 4.8 8.0 0.00 0.05 0.05 78 1005.7
20260501192447 7 17 6.4 9.7 0.00 0.05 0.05 78 1005.8
20260501192007 7 346 6.4 11.3 0.00 0.00 0.05 78 1013.8
20260501191944 7 346 6.4 11.3 0.00 0.05 0.05 78 1005.8
20260501191441 7 252 1.6 1.6 0.00 0.05 0.05 78 1005.4
20260501191005 7 267 0.0 6.4 0.00 0.00 0.05 78 1013.4
20260501190938 7 267 0.0 4.8 0.00 0.05 0.05 78 1005.4
20260501190434 7 59 3.2 4.8 0.00 0.05 0.05 78 1005.0
20260501190004 7 283 1.6 4.8 0.00 0.00 0.05 78 1012.9
20260501185929 7 283 1.6 3.2 0.00 0.05 0.05 78 1004.8
20260501185505 7 44 6.4 11.3 0.00 0.00 0.05 78 1012.5
20260501185426 7 44 4.8 11.3 0.00 0.05 0.05 78 1004.4
20260501185004 7 171 3.2 4.8 0.00 0.00 0.05 77 1013.0
20260501184921 7 171 1.6 3.2 0.00 0.05 0.05 77 1004.9
20260501184505 7 50 3.2 11.3 0.00 0.00 0.05 77 1012.5
20260501184418 7 50 1.6 11.3 0.00 0.05 0.05 77 1004.4
20260501184004 7 173 3.2 8.0 0.00 0.00 0.05 76 1012.5
20260501183913 7 107 4.8 8.0 0.00 0.05 0.05 76 1004.5
20260501183505 7 204 6.4 8.0 0.10 0.00 0.05 77 1012.6
20260501183411 7 197 4.8 4.8 0.13 0.05 0.05 77 1004.0
20260501183005 7 71 3.2 4.8 0.10 0.00 0.05 77 1012.3
20260501182907 7 84 1.6 4.8 0.13 0.05 0.05 77 1004.1
20260501182505 7 169 6.4 8.0 0.00 0.00 0.03 77 1012.3
20260501182404 7 7 0.0 4.8 0.00 0.03 0.03 76 1004.1
20260501182005 8 344 1.6 6.4 0.00 0.00 0.03 75 1012.0
20260501181900 8 276 3.2 4.8 0.00 0.03 0.03 75 1003.4
20260501181505 8 268 1.6 14.5 0.00 0.00 0.03 74 1011.9
20260501181357 8 2 3.2 8.0 0.00 0.03 0.03 74 1003.4
20260501181004 8 308 6.4 8.0 0.00 0.00 0.03 73 1011.8
20260501180855 8 296 0.0 4.8 0.00 0.03 0.03 73 1003.4
20260501180505 8 227 3.2 9.7 0.00 0.00 0.03 72 1011.5
20260501180351 8 275 8.0 9.7 0.00 0.03 0.03 72 1003.5
20260501180005 8 336 9.7 20.9 0.00 0.00 0.03 71 1011.3
20260501175848 8 312 3.2 12.9 0.00 0.03 0.03 71 1002.9
20260501175504 8 326 8.0 14.5 0.00 0.00 0.03 70 1011.2
20260501175345 8 254 11.3 16.1 0.00 0.03 0.03 70 1002.8
20260501175004 8 297 8.0 16.1 0.00 0.00 0.03 69 1011.1
20260501174842 8 248 3.2 20.9 0.00 0.03 0.03 68 1002.7
20260501174339 9 302 4.8 11.3 0.00 0.03 0.03 68 1002.2
20260501174004 9 251 9.7 17.7 0.00 0.00 0.03 69 1010.5
20260501173837 8 247 4.8 22.5 0.00 0.03 0.03 68 1002.2
20260501173334 8 287 11.3 16.1 0.00 0.03 0.03 71 1001.7
20260501173004 8 317 9.7 14.5 0.00 0.00 0.03 73 1010.4
20260501172829 8 277 4.8 9.7 0.00 0.03 0.03 73 1001.7
20260501172505 8 282 22.5 24.1 0.00 0.00 0.03 77 1010.1
20260501172325 8 282 3.2 12.9 0.00 0.03 0.03 77 1001.6